Location: Boncourt
(49.6160°N, 3.9448°E)
Time: 19:36:53
(UTC+00:00)

Resurs 1-3 - Pass Details

Date: 09 February 2023
Orbit: 627 x 629 km, 97.8° (Epoch: 25 March)

Event Time Altitude Azimuth Distance (km) Brightness Sun altitude
Exits shadow 18:43:41 34° 58° (ENE) 1,049 4.3 -18.3°
Drops below altitude 10° 18:47:21 10° 2° (N) 2,023 6.2 -18.9°
Sets 18:49:42 0° 354° (N) 2,935 7.1 -19.3°
